カタログに戻る

STARLINK-38112

運用中通信SSO
NORAD 100181·PAYLOAD·🇺🇸 United States

打ち上げ Aug 1, 2026 から Vandenberg Space Force Base

Loading…

次のパス (今後24時間)

TLE

最新Source: Space-Track

元期: Sep 14, 2026, 12:04 UTC

1 A0181U 26175C   26257.50337710  .00225854  00000-0  14710-2 0  9990
2 A0181  97.2843  99.6653 0001434  94.2729 265.8700 15.75259173  8234

AllMySatでSTARLINK-38112をリアルタイム追跡

Download on the App Store